MST,Max TemperatureF,Mean TemperatureF,Min TemperatureF,Max Dew PointF,MeanDew PointF,Min DewpointF,Max Humidity, Mean Humidity, Min Humidity, Max Sea Level PressureIn, Mean Sea Level PressureIn, Min Sea Level PressureIn, Max VisibilityMiles, Mean VisibilityMiles, Min VisibilityMiles, Max Wind SpeedMPH, Mean Wind SpeedMPH, Max Gust SpeedMPH,PrecipitationIn, CloudCover, Events, WindDirDegrees
2014-1-1,43,30,16,25,19,9,88,60,32,30.49,30.33,30.17,10,10,6,14,4,20,T,3,,202
2014-1-2,35,22,9,15,9,4,83,61,39,30.60,30.49,30.40,10,10,10,8,2,9,0.00,0,,162
2014-1-3,34,20,6,19,11,3,83,63,43,30.38,30.18,29.92,10,10,10,9,2,10,0.00,2,,108
2014-1-4,29,18,7,24,18,5,92,71,50,30.24,29.93,29.79,10,5,0,24,7,29,0.07,7,Fog-Snow,300
2014-1-5,23,13,2,9,3,-5,92,66,39,30.63,30.43,30.15,10,10,10,25,4,36,0.00,4,,225
2014-1-6,24,10,-5,3,-3,-10,79,57,35,30.85,30.70,30.61,10,10,10,9,3,10,0.00,0,,140
2014-1-7,24,14,3,20,11,-4,92,71,49,30.59,30.34,30.15,10,7,1,7,2,9,0.02,6,Snow,114
2014-1-8,31,26,21,27,24,19,100,86,72,30.27,30.17,30.09,10,4,1,6,2,6,0.06,7,Snow,94
2014-1-9,32,29,25,29,26,16,92,85,78,30.16,29.99,29.86,10,5,1,22,3,27,0.05,8,Snow,30
2014-1-10,28,20,12,23,15,9,92,75,58,30.32,30.12,30.02,10,9,4,12,4,14,T,6,Snow,202
2014-1-11,38,27,16,23,20,14,92,73,54,30.42,30.23,29.92,10,10,9,7,2,9,0.00,3,,121
2014-1-12,38,27,16,29,21,8,92,64,35,30.30,29.95,29.78,10,7,0,33,7,44,0.01,5,Fog-Snow,270
2014-1-13,33,24,15,19,12,7,80,61,41,30.51,30.42,30.31,10,10,10,10,3,12,0.00,4,,123
2014-1-14,34,20,5,18,11,4,91,71,51,30.71,30.61,30.48,10,10,10,8,2,9,0.00,0,,121
2014-1-15,36,22,7,16,11,3,91,67,43,30.72,30.60,30.47,10,10,10,8,2,9,0.00,0,,134
2014-1-16,36,21,5,15,10,3,84,64,43,30.64,30.54,30.44,10,10,10,8,2,9,0.00,0,,129
2014-1-17,37,22,7,15,9,4,84,61,38,30.59,30.48,30.36,10,10,10,8,2,9,0.00,0,,147
2014-1-18,40,24,7,16,10,3,83,59,35,30.60,30.50,30.42,10,10,10,9,3,10,0.00,0,,125
2014-1-19,39,24,8,18,11,5,83,62,40,30.57,30.46,30.35,10,10,10,9,2,10,0.00,0,,145
2014-1-20,41,26,10,18,11,6,84,57,30,30.66,30.53,30.39,10,10,10,10,2,12,0.00,0,,111
2014-1-21,37,22,6,14,8,2,80,56,32,30.76,30.60,30.48,10,10,10,8,2,9,0.00,0,,150
2014-1-22,36,20,4,13,6,-1,83,56,29,30.47,30.28,30.12,10,10,10,7,1,8,0.00,0,,130
2014-1-23,39,25,10,15,9,4,76,56,35,30.66,30.42,30.14,10,10,10,15,3,19,0.00,1,,93
2014-1-24,34,19,3,13,5,-2,83,57,30,30.82,30.70,30.59,10,10,10,7,2,10,0.00,0,,134
2014-1-25,38,22,6,14,7,1,74,52,29,30.64,30.47,30.32,10,10,10,6,2,7,0.00,0,,143
2014-1-26,38,23,8,17,10,3,80,58,35,30.35,30.22,30.09,10,10,10,7,1,8,0.00,0,,140
2014-1-27,41,27,13,26,17,9,84,66,47,30.17,30.08,29.92,10,10,10,23,3,29,T,4,,278
2014-1-28,32,20,8,13,2,-9,69,43,17,30.45,30.35,30.17,10,10,10,14,5,17,0.00,0,,195
2014-1-29,33,22,11,28,16,3,92,62,31,30.40,30.13,29.81,10,9,2,8,2,10,T,6,Snow,125
2014-1-30,34,32,29,32,30,26,100,93,85,29.85,29.74,29.66,10,2,0,13,3,14,0.73,8,Fog-Snow,270
2014-1-31,31,27,22,30,27,19,100,91,81,29.85,29.72,29.65,10,5,1,10,3,12,0.05,8,Snow,266